{"data":{"norad_id":65773,"epoch":"2026-05-25T00:15:52.271424Z","epoch_age_seconds":73966,"freshness":"FRESH","line1":"1 65773U 25217M   26145.01102166  .00002975  00000+0  41925-3 0  9996","line2":"2 65773  51.9032  48.1724 0000932 108.7087 251.3977 14.79917292 36421","mean_motion":14.79917292,"eccentricity":9.32e-5,"inclination_deg":51.9032,"raan_deg":48.1724,"arg_perigee_deg":108.7087,"mean_anomaly_deg":251.3977,"bstar":0.00041925,"rev_number":3642,"period_min":97.302734942298,"perigee_km":628.93209616662,"apogee_km":630.23833558766,"semimajor_km":7007.7222158771,"source":"CELESTRAK","updated_at":"2026-05-25T13:38:05.661819Z"}}